Regional Weather Roundup
Issued by NWS

Home | Current Version | Previous Version | Graphics & Text | Print | Product List | Glossary On
Versions: 1 2 3 4 5 6 7 8 9 10 11 12 13 14 15 16 17 18 19 20 21 22 23 24 25 26 27 28 29 30 31 32 33 34 35 36 37 38 39 40 41 42 43 44 45 46 47 48 49 50
468
ASUS43 KLOT 222202
RWRIL

ILLINOIS REGIONAL WEATHER ROUNDUP
NATIONAL WEATHER SERVICE CHICAGO/ROMEOVILLE IL
500 PM CDT WED MAR 22 2017

NOTE: "FAIR" INDICATES FEW OR NO CLOUDS BELOW 12,000 FEET WITH NO
SIGNIFICANT WEATHER AND/OR OBSTRUCTIONS TO VISIBILITY.

* THESE STATIONS ARE NOT UNDER NWS QUALITY CONTROL. THEY ALSO MAY NOT
  REPORT WEATHER SUCH AS PRECIPITATION OR FOG.

ILZ001-002-007-009-015-016-024-222300-
NORTHWEST ILLINOIS

CITY           SKY/WX    TMP DP  RH WIND       PRES   REMARKS
MOLINE         MOSUNNY   44  19  36 E10       30.44F
SAVANNA*       SUNNY     44  17  33 SE10      30.46S
$$

ILZ003-004-008-010-011-017-018-222300-
NORTH CENTRAL ILLINOIS

CITY           SKY/WX    TMP DP  RH WIND       PRES   REMARKS
ROCKFORD       CLOUDY    42  16  34 E5        30.49F
FREEPORT*      SUNNY     39  14  36 E9        30.48F WCI  33
ROCHELLE*      SUNNY     41  18  40 E9        30.48F
DE KALB*       SUNNY     39  18  42 E12       30.49S WCI  32
PERU*          SUNNY     40  19  41 E6        30.47F
$$

ILZ005-006-012>014-019>023-222300-
NORTHEAST ILLINOIS

CITY           SKY/WX    TMP DP  RH WIND       PRES   REMARKS
CHICAGO-OHARE  MOSUNNY   34  17  50 NE10      30.51F WCI  26
CHICAGO-MIDWAY PTSUNNY   33  17  51 VRB7      30.52F WCI  27
AURORA         SUNNY     40  16  37 NE8       30.49F
LANSING*       SUNNY     33  22  62 NE9       30.52F WCI  26
JOLIET*        SUNNY     38  16  40 NE8       30.50F WCI  33
WAUKEGAN       SUNNY     29  18  63 NE9       30.53F WCI  20
DUPAGE AIRPORT SUNNY     36  18  48 E10       30.49F WCI  28
KANKAKEE*      SUNNY     41  17  38 E12       30.49F
WHEELING       SUNNY     31  18  58 NE8       30.54F WCI  23
MORRIS*        SUNNY     39  18  42 E7        30.49S WCI  34
NORTHERLY ISL    N/A     30  18  60 N12         N/A  WCI  21
$$

LMZ740>746-222300-
SOUTHERN LAKE MICHIGAN

STATION/POSITION SKY/WX   TEMP    WIND        PRES    VSBY  WAVE
                          AIR SEA DIR/SP/G                  HT/PER
                          (F)     (DEG/KT/KT) (MB)    (MI)  (FT/S)
HARRISON CRIB              29      40/ 10/ 11   N/A
BURNHAM HARBOR             30      30/  8/ 11   N/A
CALUMET HARBOR             29      20/  7/ 13 1033.2F
BURNS HARBOR               29      40/  9/ 10 1034.2F
MICHIGAN CITY              29      10/  8/  9   N/A
$$

ILZ025>027-034>036-040-047-049-050-058-095>099-222300-
WEST-CENTRAL ILLINOIS

CITY           SKY/WX    TMP DP  RH WIND       PRES   REMARKS
QUINCY         CLOUDY    48  13  24 E16       30.38F
GALESBURG*     MOSUNNY   41  21  45 E6        30.43F
MACOMB*        CLOUDY    44  15  30 E9G20     30.44F
JACKSONVILLE*  SUNNY     47  13  25 E14       30.41F
PITTSFIELD*    PTSUNNY   48  13  24 E13       30.39F
$$

ILZ028>032-037-038-041>044-048-051>054-059>061-222300-
CENTRAL ILLINOIS

CITY           SKY/WX    TMP DP  RH WIND       PRES   REMARKS
PONTIAC        SUNNY     41  21  45 E12       30.48F
BLOOMINGTON    SUNNY     40  19  43 E16       30.45F
DECATUR        SUNNY     44  12  27 E15       30.42F
PEORIA         MOSUNNY   42  18  37 E10       30.45F
LACON*         MOSUNNY   41  23  48 E10       30.46F
LINCOLN*       SUNNY     44  18  35 E12       30.44F
SPRINGFIELD    MOSUNNY   48  13  24 NE13G20   30.43F
TAYLORVILLE    SUNNY     47  13  25 E16       30.40F
$$

ILZ033-039-045-046-055>057-062-063-222300-
EAST-CENTRAL ILLINOIS

CITY           SKY/WX    TMP DP  RH WIND       PRES   REMARKS
CHAMPAIGN      SUNNY     43  16  33 E14G20    30.45F
RANTOUL*       SUNNY     42  22  45 E13       30.46F
MATTOON        SUNNY     45  16  31 NE16      30.41F
PARIS*         SUNNY     42  23  47 NE13G21   30.44F
$$

ILZ079-100>102-222300-
SOUTHWEST ILLINOIS

CITY           SKY/WX    TMP DP  RH WIND       PRES   REMARKS
ALTON          PTSUNNY   46  16  29 E10G16    30.39F
BELLEVILLE     CLOUDY    49  17  27 E10       30.37F
CAHOKIA*       MOSUNNY   51  16  24 NE13      30.38F
SPARTA*        SUNNY     51  23  33 NE10      30.37F
$$

ILZ064>066-069>071-074>076-080>082-084>086-088>090-092>094-222300-
SOUTH-CENTRAL ILLINOIS

CITY           SKY/WX    TMP DP  RH WIND       PRES   REMARKS
CARBONDALE     SUNNY     51  23  33 NE13      30.36F
CAIRO*         SUNNY     55  26  31 NE12G17   30.33S
EFFINGHAM*     SUNNY    N/A N/A N/A NE6       30.42F
MARION         MOSUNNY   55  19  24 NE14      30.37S
MT. VERNON     SUNNY     50  22  33 E9        30.38F
CENTRALIA*     SUNNY     49  22  34 E9        30.37F
SALEM*         SUNNY     50  19  28 NE6       30.40S
METROPOLIS*    SUNNY     55  22  28 E9        30.34S
$$

ILZ067-068-072-073-078-083-087-091-222300-
SOUTHEAST ILLINOIS

CITY           SKY/WX    TMP DP  RH WIND       PRES   REMARKS
LAWRENCEVILLE  SUNNY     49  14  24 E13       30.41S
FLORA*         SUNNY     50  20  31 NE9       30.41S
FAIRFIELD*     SUNNY     49  20  30 NE9       30.39S
HARRISBURG*    SUNNY     52  26  36 NE10G21   30.37S
ROBINSON*      SUNNY     47  16  29 E13G18    30.42F
CARMI*         SUNNY     51  17  26 NE9       30.37F
$$

ABBREVIATIONS USED IN REMARKS
   TC - TEMPERATURE IN CELSIUS
  WCI - WIND CHILL INDEX
   HX - HEAT INDEX
  VSB - VISIBILITY
$$





USA.gov is the U.S. government's official web portal to all federal, state and local government web resources and services.